Terminal Aerodrome Forecast
Issued by NWS

Home | Current Version | Previous Version | Text Only | Print | Product List | Glossary On
Versions: 1 2 3 4 5 6 7 8 9 10 11 12 13 14 15 16 17 18
000
FTUS43 KILX 050535
TAFDEC
TAF
KDEC 050535Z 0506/0606 VRB06KT P6SM VCSH BKN060
     FM051500 21012KT P6SM SCT060
     FM060000 18006KT P6SM SCT060=

USA.gov is the U.S. government's official web portal to all federal, state and local government web resources and services.